Find Starlink 11108

NORAD ID: 59712 Int'l Des: 2024-088 Owner: SPXS Country: US Constellation: starlink operational
LEOCIRCULAR

Current View

Loading 3D Globe...

About Starlink 11108

Starlink 11108 (NORAD 59712) is a starlink constellation satellite (v2 mini d2c) launched May 10, 2024 by SPXS of US. It operates in LEO, CIRCULAR orbit with a mass of 960.00 kg.

About Starlink 11108

Description loading...

Upcoming Passes

Passes for default location (London). Set your location on the main map for personalized predictions.

Altitude History

Loading altitude history...

Two-Line Element Set

1 59712U 24088E 26170.32672148 -.00003504 00000-0 -24067-4 0 9992
2 59712 53.1592 185.3719 0000702 77.4664 282.6432 15.69725491122234
Epoch: Jun 19, 2026 • Age: 20 hours

Current Status

Altitude 362.3 km
Velocity 7.70 km/s
Sub-Earth Point 36.76°N, 5.01°W
Launch Date May 10, 2024
Age 2.1 years
Type internet

Technical Details

Classification Payload
Mass 960.00 kg
Dry Mass 910.00 kg
Total Mass 960.00 kg
Length 0.30 m
Diameter 4.10 m
Span 29.00 m
Shape Box + pan
Manufacturer SPXS
Bus Type Starlink V2MD
Phase Status In Orbit
Owner/State SPXS/US

Most Searched